PEGASUS DEB, 39932

Orbit data source: Space-Track

PEGASUS DEB, 39932 is space debris in LEO originally from a launch on Thu, 19 May 1994 UTC launched from the Air Force Western Test Range (AFWTR). Debris objects in space refer to the collection of defunct objects orbiting the Earth. Examples of debris include non-operational satellites, rocket bodies, and fragments generated from explosions, collisions, or faulty payload assembly.

Loading next visibility...
Identifier
39932, 1994-029AGF
Orbit
LEO
Country
Flag of USUS
Related business
Manufacturer
Unknown
Mission
Spacecraft
Bus & Motor
Unknown
Mass
Unknown
Launch date (UTC)
1994-05-19 (32 years ago)
Launch vehicle
Unknown
Launch site
Air Force Western Test Range (AFWTR)
Object type
Payload
Rocket body
Debris
Shape & HBR
Unknown shape, 0.1 m
Radar Cross Section
Small (<0.1 m²)

Expand to show TLE details & history
Last TLE update: 4 days ago

TLE from 4 days ago
0 PEGASUS DEB
1 39932U 94029AGF 26045.11014376  .00001717  00000-0  40365-3 0  9997
2 39932  81.8195 327.3347 0298478 117.0192 246.1796 14.29997731606850
Epoch: 2026-02-14T02:38Z
TLE epoch observation values (Epoch: 2026-02-14T02:38:36.420Z)
Latitude
-0.00009°
Longitude
143.54503°
Altitude
886.387 km
Speed
7.362 km/s
True Right ascension
21h 49m 20s
True Declination
0° 00' 00"
Sunlit
Object was in daylight at epoch
Visualization orbit readout
Latitude
Unknown
Longitude
Unknown
Altitude
Unknown
Speed
Unknown
Apparent Right ascension
Unknown
Apparent Declination
Unknown
Sunlit
N/A
Visualization observer readout
Local Sidereal Time
05:14:10
Azimuth
Unknown
Elevation
Unknown
Doppler factor
Unknown
Orbital elements
Apogee altitude
1,002.774 km
Perigee altitude
574.936 km
Semi-major axis
7,166.992 km
Eccentricity
0.02985
Inclination
81.8195°
RAAN
327.3347°
Arg. of periapsis
117.0192°
True anomaly
243.09861°
Mean anomaly
246.1796°
Eccentric anomaly
244.63432°
Mean motion
3.57716 °/min
Orbital period
100.64 mins
BSTAR
0.00040365
Loading maneuver chart data...
Computing Atmospheric mass density...

Documentation

Showing up to 5 results
|